Simultaneous Nadir Overpasses (SNOs) Predictions

Prediction of SNOs between LANDSAT-8 and METOP-B Satellite Orbit:

Table of predicted SNOs for the next 14.0 days since TLE Epoch: 7/4/2020
Index Date (LANDSAT-8) Time (LANDSAT-8) Lat,Lon (LANDSAT-8) SZA (LANDSAT-8 ) Date (METOP-B) Time (METOP-B) Lat,Lon (METOP-B) SZA (METOP-B ) Distance(km) Time Diff (sec)
1 07/06/2020 18:44:51 81.15, -60.70 60.67 07/06/2020 18:44:27 81.16, -60.70 60.67 0.59 24
2 07/06/2020 19:34:17 -81.17, 107.27 119.28 07/06/2020 19:35:07 -81.17, 107.08 119.28 3.12 50
3 07/09/2020 14:19:07 81.16, 5.87 61.01 07/09/2020 14:18:48 81.16, 5.78 60.99 1.50 19
4 07/09/2020 15:08:33 -81.18, 173.85 118.94 07/09/2020 15:09:27 -81.19, 173.95 118.91 1.72 54
5 07/12/2020 09:53:22 81.17, 72.41 61.39 07/12/2020 09:53:08 81.16, 72.25 61.36 2.76 14
6 07/12/2020 10:42:48 -81.19,-119.59 118.56 07/12/2020 10:43:47 -81.19,-119.58 118.53 0.19 59
7 07/15/2020 05:27:38 81.17, 138.92 61.82 07/15/2020 05:27:28 81.18, 139.09 61.83 2.84 10
8 07/15/2020 06:17:04 -81.20, -53.05 118.13 07/15/2020 06:18:08 -81.19, -53.12 118.11 1.26 64
9 07/18/2020 01:01:54 81.18,-154.58 62.29 07/18/2020 01:01:49 81.18,-154.46 62.30 2.06 5
